TimeCDT,TemperatureF,Dew PointF,Humidity,Sea Level PressureIn,VisibilityMPH,Wind Direction,Wind SpeedMPH,Gust SpeedMPH,PrecipitationIn,Events,Conditions,WindDirDegrees,DateUTC
12:53 AM,59.0,54.0,83,29.90,10.0,NNW,3.5,-,N/A,,Clear,330,2013-08-02 05:53:00
1:53 AM,57.0,53.1,87,29.89,10.0,WNW,3.5,-,N/A,,Clear,290,2013-08-02 06:53:00
2:53 AM,57.0,53.1,87,29.90,10.0,NNW,3.5,-,N/A,,Partly Cloudy,340,2013-08-02 07:53:00
3:53 AM,55.9,51.1,84,29.91,10.0,Calm,Calm,-,N/A,,Clear,0,2013-08-02 08:53:00
4:53 AM,53.1,51.1,93,29.92,10.0,NW,3.5,-,N/A,,Clear,320,2013-08-02 09:53:00
5:53 AM,52.0,50.0,93,29.94,10.0,NNW,4.6,-,N/A,,Clear,340,2013-08-02 10:53:00
6:53 AM,55.0,52.0,89,29.94,10.0,NW,4.6,-,N/A,,Clear,310,2013-08-02 11:53:00
7:53 AM,61.0,53.1,75,29.96,10.0,NW,5.8,-,N/A,,Clear,320,2013-08-02 12:53:00
8:53 AM,66.0,55.0,68,29.97,10.0,NW,6.9,-,N/A,,Clear,320,2013-08-02 13:53:00
9:53 AM,71.1,54.0,55,29.96,10.0,Variable,6.9,-,N/A,,Clear,0,2013-08-02 14:53:00
10:53 AM,72.0,52.0,49,29.97,10.0,North,8.1,-,N/A,,Clear,360,2013-08-02 15:53:00
11:53 AM,72.0,53.1,51,29.99,10.0,NNW,10.4,-,N/A,,Clear,330,2013-08-02 16:53:00
12:53 PM,72.0,50.0,46,29.99,10.0,North,5.8,-,N/A,,Clear,360,2013-08-02 17:53:00
1:53 PM,75.0,48.9,40,29.99,10.0,NW,6.9,-,N/A,,Partly Cloudy,320,2013-08-02 18:53:00
2:53 PM,75.0,46.0,36,29.99,10.0,North,10.4,-,N/A,,Partly Cloudy,10,2013-08-02 19:53:00
3:53 PM,75.9,46.0,35,30.00,10.0,NNW,8.1,-,N/A,,Partly Cloudy,340,2013-08-02 20:53:00
4:53 PM,75.9,46.9,36,29.99,10.0,NNW,5.8,-,N/A,,Clear,340,2013-08-02 21:53:00
5:53 PM,73.0,48.0,41,30.00,10.0,NNW,6.9,-,N/A,,Scattered Clouds,340,2013-08-02 22:53:00
6:53 PM,73.9,50.0,43,30.01,10.0,North,3.5,-,N/A,,Partly Cloudy,360,2013-08-02 23:53:00
7:53 PM,72.0,50.0,46,30.01,10.0,North,3.5,-,N/A,,Partly Cloudy,360,2013-08-03 00:53:00
8:53 PM,63.0,52.0,67,30.03,10.0,Calm,Calm,-,N/A,,Partly Cloudy,0,2013-08-03 01:53:00
9:53 PM,57.9,52.0,81,30.05,10.0,Calm,Calm,-,N/A,,Clear,0,2013-08-03 02:53:00
10:53 PM,55.9,51.1,84,30.07,10.0,Calm,Calm,-,N/A,,Clear,0,2013-08-03 03:53:00
11:53 PM,55.0,51.1,86,30.09,10.0,Calm,Calm,-,N/A,,Partly Cloudy,0,2013-08-03 04:53:00